Location: Unspecified
(0.0000°N, 0.0000°E)
Time: 06:33:43
(UTC+00:00)

Vanguard 1 - Pass Details

Date: 19 November 2019
Orbit: 652 x 3832 km, 34.3° (Epoch: 10 December)

Event Time Altitude Azimuth Distance (km) Brightness Sun altitude
Rises 09:52:24 0° 272° (W) 6,608 14.0 56.2°
Reaches altitude 10° 10:00:35 10° 293° (WNW) 4,760 13.4 57.8°
Maximum altitude 10:06:04 14° 320° (NW) 3,831 12.9 58.9°
Drops below altitude 10° 10:10:26 10° 348° (NNW) 3,600 12.8 59.7°
Sets 10:14:56 0° 15° (NNE) 4,026 13.1 60.5°
